Flag for Germany Weather past 2 weeks in Bautzen, Saxony, Germany

Now
74 °F

Scattered clouds.


Feels Like: 77 °F
Forecast: 58 / 74 °F
Wind: 9 mph from Southwest

Location: Goerlitz

Current Time: Jun 2, 2015 at 5:52:46 PM

Latest Report: Jun 2, 2015 at 5:00 PM


Visibility: 31 mi

Pressure: 29.98 "Hg

Humidity: 39%

Dew point: 48 °F

Location of BautzenLocation

Historic Weather in Bautzen — Graph

°F

Bautzen temperature yesterday

Maximum temperature yesterday: 71 °F (at 4:00 PM)
Minimum temperature yesterday: 52 °F (at 11:00 PM)
Average temperature yesterday: 63 °F

Past Weeks' High & Low Weather Summary

 TemperatureHumidityPressure
High74 °F (Jun 2, 5:00 PM)100% (Jun 2, 2:00 AM)30.33 "Hg (Jun 2, 2:00 AM)
Low40 °F (May 23, 5:00 AM)32% (May 22, 4:00 PM)29.66 "Hg (May 19, 3:00 AM)
Average57 °F68%30.00 "Hg
* Reported May 18 5:00 PM — Jun 2 5:00 PM, Bautzen, Weather by CustomWeather, © 2015

Note: Actual official high and low records may vary slightly from our data, if they occured in-between our weather recording intervals... More about our weather records

Advertising

Bautzen weather history for previous 24 hours

 ConditionsComfort  
Time TempWeatherWind HumidityBarometerVisibility
5:00 PM
Tue, Jun 2
74 °FScattered clouds.9 mph39%29.98 "Hg31 mi
4:00 PM73 °FScattered clouds.8 mph40%29.99 "Hg28 mi
3:00 PM72 °FPartly sunny.8 mph45%29.98 "Hg28 mi
2:00 PM72 °FPartly sunny.9 mph48%29.99 "Hg25 mi
1:00 PM69 °FPartly sunny.9 mph56%30.01 "Hg25 mi
12:00 PM67 °FPartly sunny.8 mph65%30.01 "Hg25 mi
11:00 AM65 °FPartly sunny.7 mph73%30.02 "Hg28 mi
10:00 AM64 °FPartly sunny.5 mph77%30.02 "Hg31 mi
9:00 AM62 °FScattered clouds.3 mph80%30.03 "Hg31 mi
8:00 AM59 °FPassing clouds.3 mph86%30.03 "Hg31 mi
7:00 AM55 °FScattered clouds.3 mph95%30.03 "Hg31 mi
5:00 AM50 °FFog.3 mph100%30.03 "Hg1 mi
4:00 AM50 °FFog.5 mph100%30.04 "Hg0 mi
3:00 AM51 °FFog.1 mph100%30.05 "Hg0 mi
2:00 AM50 °FFog.1 mph100%30.06 "Hg0 mi
1:00 AM51 °FFog.2 mph99%30.06 "Hg16 mi
12:00 AM51 °FPassing clouds.2 mph99%30.04 "Hg25 mi
11:00 PM
Mon, Jun 1
52 °FPassing clouds.3 mph97%30.05 "Hg16 mi
10:00 PM53 °FLow clouds.1 mph96%30.06 "Hg16 mi
9:00 PM53 °FThunderstorms. Low clouds.3 mph97%30.06 "Hg12 mi
8:00 PM54 °FThundershowers. Low clouds.6 mph97%30.07 "Hg28 mi
7:00 PM61 °FOvercast.6 mph84%30.00 "Hg12 mi
6:00 PM68 °FPartly sunny.2 mph66%29.97 "Hg31 mi
5:00 PM69 °FPartly sunny.2 mph63%29.97 "Hg31 mi
Weather by CustomWeather, © 2015

See weather overviewHow to use our weather pages